Location: Hamilton
(43.2500°N, 79.8330°W)
Time: 17:05:42
(UTC-04:00)

Amateur Radio Satellites - All Passes

Search period start: 24 April 2017 16:35
Search period end: 25 April 2017 16:35
Location: Hamilton, 43.2500°N, 79.8330°W

Satellite Date Start Highest point End Downlink Frequencies (MHz)
Time Altitude Azimuth
CUBESAT XI-V 24 Apr 16:46:03 16:48:06 13° 89° (E) 16:50:08 437.345
YUBILEINY 24 Apr 16:46:39 16:55:27 85° 263° (W) 17:04:15 435.215
Tancredo 1 24 Apr 16:55:21 16:57:58 25° 223° (SW) 17:00:34 437.200
ISS 24 Apr 16:57:41 17:00:38 32° 221° (SW) 17:03:34 437.550
SO-50 24 Apr 17:09:40 17:13:51 39° 243° (WSW) 17:18:02 436.795
DOVE 4 24 Apr 17:14:54 17:18:56 23° 64° (ENE) 17:22:55 437.250
CUTE-I 24 Apr 17:20:47 17:24:06 17° 59° (ENE) 17:27:25 437.470
BEESAT 24 Apr 17:21:56 17:26:01 29° 294° (WNW) 17:30:05 436.000
RS-15 24 Apr 17:28:47 17:41:10 88° 59° (ENE) 17:52:54 29.354- 29.394
MOZHAYETS 4 24 Apr 17:37:20 17:41:33 36° 291° (WNW) 17:45:46
XW-2D 24 Apr 17:57:02 18:00:10 26° 70° (ENE) 18:03:21 145.860 - 145.880
HO-68 24 Apr 18:00:15 18:04:27 17° 51° (NE) 18:08:40 435.675
BEESAT 2 24 Apr 18:00:22 18:01:04 10° 327° (NNW) 18:01:46 435.950
ITUPSAT 1 24 Apr 18:02:12 18:04:34 14° 301° (WNW) 18:06:57 437.325
XW-2B 24 Apr 18:03:43 18:07:01 30° 70° (ENE) 18:10:20 145.730 - 145.750
AO-7 24 Apr 18:06:47 18:10:54 14° 273° (W) 18:15:02 .
KKS-1 24 Apr 18:07:18 18:11:47 87° 107° (ESE) 18:16:12 437.445
LilacSat-2 24 Apr 18:11:32 18:15:03 40° 72° (ENE) 18:18:36 437.200
XW-2C 24 Apr 18:15:14 18:18:46 42° 73° (ENE) 18:22:19 145.795 - 145.815
KAITUO 1B 24 Apr 18:19:07 18:22:31 36° 72° (ENE) 18:25:56 145.475/437.950
CUBESAT XI-V 24 Apr 18:21:14 18:25:58 71° 285° (WNW) 18:30:39 437.345
XW-2F 24 Apr 18:42:24 18:46:07 90° 351° (N) 18:49:51 145.980 - 146.000
YUBILEINY 24 Apr 18:45:44 18:50:52 17° 284° (WNW) 18:56:01 435.215
STARS 24 Apr 18:46:02 18:50:25 83° 286° (WNW) 18:54:46 437.465
DOVE 4 24 Apr 18:51:03 18:56:13 53° 261° (W) 19:01:22 437.250
CUTE-I 24 Apr 18:58:12 19:03:32 73° 257° (WSW) 19:08:54 437.470
NUDT-PHONESAT 24 Apr 19:01:27 19:05:04 63° 259° (W) 19:08:44 437.300
XW-2D 24 Apr 19:31:26 19:34:21 21° 266° (W) 19:37:17 145.860 - 145.880
STRAND 1 24 Apr 19:36:24 19:39:28 16° 90° (E) 19:42:32 437.568
CUTE 1.7 + AOD 2 24 Apr 19:38:15 19:42:19 50° 73° (ENE) 19:46:26 437.475
XW-2B 24 Apr 19:38:36 19:41:16 19° 267° (W) 19:43:57 145.730 - 145.750
RS-15 24 Apr 19:42:52 19:51:59 26° 260° (W) 20:00:50 29.354- 29.394
AAUSAT CUBESAT 2 24 Apr 19:43:50 19:46:47 19° 66° (ENE) 19:49:44 437.432
HO-68 24 Apr 19:43:55 19:51:03 77° 71° (ENE) 19:58:14 435.675
KKS-1 24 Apr 19:46:33 19:47:38 11° 301° (WNW) 19:48:42 437.445
LilacSat-2 24 Apr 19:47:26 19:49:32 14° 268° (W) 19:51:38 437.200
XW-2A 24 Apr 19:49:06 19:52:27 73° 76° (ENE) 19:55:48 145.665 - 145.685
XW-2C 24 Apr 19:51:17 19:53:11 13° 269° (W) 19:55:05 145.795 - 145.815
KAITUO 1B 24 Apr 19:54:31 19:56:41 15° 268° (W) 19:58:52 145.475/437.950
SEEDS 24 Apr 20:02:47 20:06:54 62° 74° (ENE) 20:11:04 437.485
Oscar 11 24 Apr 20:04:45 20:06:53 14° 62° (ENE) 20:09:01 .
O/OREOS (USA 219) 24 Apr 20:05:16 20:08:39 20° 53° (NE) 20:12:01 437.305
UWE-3 24 Apr 20:11:16 20:15:07 33° 70° (ENE) 20:18:54 435.000/436.395/437.385
CUBEBUG 2 24 Apr 20:18:52 20:23:14 67° 74° (ENE) 20:27:29 437.445
M-CUBED/EXP-1 PRIME 24 Apr 20:38:08 20:42:15 44° 103° (ESE) 20:46:02 437.505
DELFI C3 24 Apr 20:50:53 20:52:09 11° 62° (ENE) 20:53:25 145.870
NO-84 24 Apr 21:09:18 21:12:54 68° 138° (SE) 21:16:12 435.350 FM
AO-85 24 Apr 21:10:01 21:12:28 16° 40° (NE) 21:14:58 145.980
ZACube-1 24 Apr 21:11:36 21:15:50 88° 77° (ENE) 21:20:01 437.345
STRAND 1 24 Apr 21:14:02 21:19:06 64° 288° (WNW) 21:24:08 437.568
CUTE 1.7 + AOD 2 24 Apr 21:16:09 21:18:27 14° 270° (W) 21:20:47 437.475
AAUSAT CUBESAT 2 24 Apr 21:18:05 21:21:57 38° 262° (W) 21:25:52 437.432
AO-73 24 Apr 21:19:54 21:24:06 83° 256° (WSW) 21:28:16 145.935
HO-68 24 Apr 21:34:25 21:39:28 20° 269° (W) 21:44:34 435.675
Oscar 11 24 Apr 21:38:15 21:42:30 63° 259° (W) 21:46:47 .
SEEDS 24 Apr 21:41:30 21:43:00 12° 271° (W) 21:44:32 437.485
O/OREOS (USA 219) 24 Apr 21:43:55 21:48:21 49° 252° (WSW) 21:52:44 437.305
UWE-3 24 Apr 21:48:16 21:51:37 22° 266° (W) 21:54:56 435.000/436.395/437.385
CUBEBUG 2 24 Apr 21:58:48 22:00:15 11° 270° (W) 22:01:41 437.445
OBJECT BX 24 Apr 22:03:17 22:06:49 52° 74° (ENE) 22:10:23 145.990 - 145.960
M-CUBED/EXP-1 PRIME 24 Apr 22:13:18 22:16:18 19° 303° (WNW) 22:19:09 437.505
FO-29 24 Apr 22:21:19 22:23:36 13° 89° (E) 22:25:55 435.910
DELFI C3 24 Apr 22:22:25 22:26:21 67° 258° (WSW) 22:30:22 145.870
TIGRISAT 24 Apr 22:42:28 22:45:53 23° 94° (E) 22:49:19 435.000
ESTCUBE 1 24 Apr 22:42:32 22:45:16 16° 62° (ENE) 22:47:59 437.505/2401.250
NO-84 24 Apr 22:48:03 22:50:40 20° 335° (NNW) 22:53:09 435.350 FM
AO-85 24 Apr 22:49:19 22:53:15 68° 239° (WSW) 22:57:22 145.980
BEESAT 2 24 Apr 22:58:29 23:00:58 15° 39° (NE) 23:03:26 435.950
UNISAT 6 24 Apr 23:02:33 23:06:37 41° 99° (E) 23:10:41 437.425
BEESAT 3 24 Apr 23:04:01 23:07:41 33° 48° (NE) 23:11:21 437.485
PRISM 24 Apr 23:10:47 23:14:58 83° 104° (ESE) 23:19:06 437.425
LO-87 24 Apr 23:14:31 23:18:03 51° 74° (ENE) 23:21:37 145.935 - 145.965
AIST 2D 24 Apr 23:36:10 23:36:50 10° 90° (E) 23:37:31 435.315
OBJECT BX 24 Apr 23:40:19 23:40:50 10° 270° (W) 23:41:21 145.990 - 145.960
QB50P2 24 Apr 23:50:44 23:51:19 10° 89° (E) 23:51:55 145.880/145.840
FO-29 25 Apr 00:04:06 00:09:18 76° 285° (WNW) 00:14:43 435.910
50 SAT 25 Apr 00:04:42 00:06:37 14° 65° (ENE) 00:08:33 437.505
DX 1 25 Apr 00:05:10 00:07:18 13° 61° (ENE) 00:09:26 434.975-435.025
NANOSAT C BR1 25 Apr 00:13:05 00:15:41 16° 92° (E) 00:18:17 145.865
ESTCUBE 1 25 Apr 00:17:09 00:21:35 58° 259° (W) 00:26:04 437.505/2401.250
TIGRISAT 25 Apr 00:18:49 00:22:37 32° 291° (WNW) 00:26:27 435.000
SPROUT 25 Apr 00:22:59 00:27:02 43° 71° (ENE) 00:31:05 437.525
BEESAT 2 25 Apr 00:35:10 00:39:13 75° 240° (WSW) 00:43:15 435.950
EO-79 25 Apr 00:38:32 00:42:20 33° 97° (E) 00:46:08 145.935-145.965
VELOX 1 25 Apr 00:39:39 00:44:06 73° 74° (ENE) 00:48:34 145.980
UNISAT 6 25 Apr 00:40:01 00:43:03 19° 295° (WNW) 00:46:06 437.425
BEESAT 3 25 Apr 00:41:51 00:45:09 25° 246° (WSW) 00:48:25 437.485
DUCHIFAT 1 25 Apr 00:43:13 00:46:56 30° 97° (E) 00:50:37 145.980
PRISM 25 Apr 00:49:17 00:49:34 10° 301° (WNW) 00:49:52 437.425
LO-87 25 Apr 00:50:59 00:51:48 11° 270° (W) 00:52:37 145.935 - 145.965
AIST 2D 25 Apr 01:06:56 01:10:20 48° 286° (WNW) 01:13:43 435.315
UKube-1 25 Apr 01:10:17 01:14:22 42° 70° (ENE) 01:18:27 .
POLYITAN 1 25 Apr 01:16:51 01:21:04 90° 307° (NW) 01:25:17 437.675
QB50P2 25 Apr 01:23:23 01:27:35 70° 285° (WNW) 01:31:45 145.880/145.840
50 SAT 25 Apr 01:36:00 01:39:15 37° 262° (W) 01:42:31 437.505
DX 1 25 Apr 01:38:34 01:42:56 67° 258° (WSW) 01:47:19 434.975-435.025
Oscar 19 25 Apr 01:41:25 01:44:41 17° 90° (E) 01:47:56 437.125/150
NANOSAT C BR1 25 Apr 01:47:38 01:51:38 45° 288° (WNW) 01:55:37 145.865
FO-29 25 Apr 01:53:06 01:53:33 10° 305° (NW) 01:54:01 435.910
BUGSAT 1 25 Apr 01:53:28 01:57:27 59° 101° (ESE) 02:01:24 437.445
ITUPSAT 1 25 Apr 01:55:41 01:57:44 13° 59° (ENE) 01:59:47 437.325
SPROUT 25 Apr 02:00:16 02:03:08 17° 268° (W) 02:06:01 437.525
NO-84 25 Apr 02:06:07 02:07:50 14° 18° (NNE) 02:09:30 435.350 FM
PCSat 25 Apr 02:07:59 02:10:40 14° 103° (ESE) 02:13:20 145.827
EO-79 25 Apr 02:14:39 02:17:56 22° 294° (WNW) 02:21:11 145.935-145.965
DUCHIFAT 1 25 Apr 02:19:07 02:22:28 24° 293° (WNW) 02:25:47 145.980
VELOX 1 25 Apr 02:19:40 02:21:02 11° 271° (W) 02:22:25 145.980
UKube-1 25 Apr 02:47:33 02:50:34 18° 267° (W) 02:53:36 .
BEESAT 25 Apr 02:51:14 02:55:42 42° 69° (ENE) 03:00:10 436.000
MOZHAYETS 4 25 Apr 03:03:30 03:07:14 26° 67° (ENE) 03:10:59
Gurwin Techsat 1B 25 Apr 03:04:24 03:09:39 57° 101° (E) 03:14:51 435.225
Oscar 19 25 Apr 03:19:16 03:24:26 64° 288° (WNW) 03:29:34 437.125/150
ITUPSAT 1 25 Apr 03:30:08 03:34:52 83° 256° (WSW) 03:39:40 437.325
BUGSAT 1 25 Apr 03:30:34 03:32:19 13° 298° (WNW) 03:34:04 437.445
KKS-1 25 Apr 03:33:36 03:34:32 11° 59° (ENE) 03:35:29 437.445
NO-84 25 Apr 03:42:54 03:45:48 76° 39° (NE) 03:48:37 435.350 FM
PCSat 25 Apr 03:47:52 03:53:17 84° 300° (WNW) 03:58:46 145.827
CUBESAT XI-V 25 Apr 03:50:21 03:52:58 15° 61° (ENE) 03:55:35 437.345
YUBILEINY 25 Apr 03:54:55 04:01:14 23° 79° (E) 04:07:33 435.215
AO-7 25 Apr 04:09:13 04:16:40 35° 97° (E) 04:24:05 .
STARS 25 Apr 04:10:32 04:11:53 11° 59° (ENE) 04:13:14 437.465
BEESAT 25 Apr 04:29:59 04:33:38 22° 266° (W) 04:37:17 436.000
MOZHAYETS 4 25 Apr 04:40:08 04:44:15 33° 263° (W) 04:48:24
ITAMSAT 1 25 Apr 04:40:37 04:45:47 68° 102° (ESE) 04:50:56 435.822/435.867
Gurwin Techsat 1B 25 Apr 04:45:16 04:49:10 21° 298° (WNW) 04:53:02 435.225
KKS-1 25 Apr 05:05:53 05:10:23 90° 27° (NNE) 05:14:53 437.445
CUBESAT XI-V 25 Apr 05:25:10 05:29:47 66° 259° (W) 05:34:27 437.345
PCSat 25 Apr 05:33:59 05:37:32 17° 321° (NW) 05:41:05 145.827
STARS 25 Apr 05:43:08 05:47:34 83° 258° (WSW) 05:52:00 437.465
YUBILEINY 25 Apr 05:48:21 05:57:02 77° 279° (W) 06:05:47 435.215
M-CUBED/EXP-1 PRIME 25 Apr 05:54:22 05:54:40 10° 52° (NE) 05:54:59 437.505
AO-7 25 Apr 06:01:41 06:09:43 56° 296° (WNW) 06:17:46 .
ITAMSAT 1 25 Apr 06:21:23 06:24:41 17° 300° (WNW) 06:28:00 435.822/435.867
NUDT-PHONESAT 25 Apr 06:32:52 06:33:58 11° 90° (E) 06:35:03 437.300
DOVE 4 25 Apr 06:49:30 06:53:55 40° 96° (E) 06:58:04 437.250
STRAND 1 25 Apr 06:52:54 06:57:05 27° 65° (ENE) 07:01:18 437.568
XW-2D 25 Apr 07:01:58 07:05:27 33° 97° (E) 07:08:55 145.860 - 145.880
XW-2B 25 Apr 07:08:46 07:12:22 38° 98° (E) 07:15:57 145.730 - 145.750
HO-68 25 Apr 07:13:26 07:16:16 12° 86° (E) 07:19:07 435.675
CUTE-I 25 Apr 07:14:17 07:19:18 41° 98° (E) 07:24:16 437.470
LilacSat-2 25 Apr 07:17:27 07:21:13 53° 100° (E) 07:24:59 437.200
XW-2C 25 Apr 07:20:28 07:24:14 55° 100° (E) 07:27:58 145.795 - 145.815
KAITUO 1B 25 Apr 07:22:46 07:26:25 46° 99° (E) 07:30:03 145.475/437.950
M-CUBED/EXP-1 PRIME 25 Apr 07:23:38 07:28:13 69° 69° (ENE) 07:32:53 437.505
SO-50 25 Apr 07:24:13 07:28:40 50° 119° (ESE) 07:33:06 436.795
XW-2F 25 Apr 07:47:23 07:51:10 70° 284° (WNW) 07:54:56 145.980 - 146.000
YUBILEINY 25 Apr 07:50:17 07:55:29 17° 302° (WNW) 08:00:43 435.215
RS-15 25 Apr 07:52:01 08:03:29 54° 111° (ESE) 08:15:15 29.354- 29.394
AO-7 25 Apr 07:56:49 08:00:43 14° 318° (NW) 08:04:38 .
NUDT-PHONESAT 25 Apr 08:04:33 08:08:10 51° 286° (WNW) 08:11:48 437.300
CUBEBUG 2 25 Apr 08:10:24 08:11:58 12° 90° (E) 08:13:32 437.445
DOVE 4 25 Apr 08:27:45 08:31:19 22° 296° (WNW) 08:34:44 437.250
STRAND 1 25 Apr 08:31:17 08:36:03 40° 262° (W) 08:40:53 437.568
XW-2D 25 Apr 08:36:45 08:39:25 18° 293° (WNW) 08:42:04 145.860 - 145.880
XW-2A 25 Apr 08:42:28 08:45:48 67° 101° (E) 08:49:09 145.665 - 145.685
XW-2B 25 Apr 08:43:52 08:46:15 16° 294° (WNW) 08:48:39 145.730 - 145.750
LilacSat-2 25 Apr 08:53:22 08:55:03 13° 296° (WNW) 08:56:44 437.200
CUTE-I 25 Apr 08:54:42 08:59:09 28° 295° (WNW) 09:03:35 437.470
XW-2C 25 Apr 08:56:28 08:57:58 12° 296° (WNW) 08:59:28 145.795 - 145.815
CUTE 1.7 + AOD 2 25 Apr 08:57:25 09:01:45 90° 177° (S) 09:06:02 437.475
HO-68 25 Apr 08:57:56 09:05:09 74° 104° (ESE) 09:12:21 435.675
KAITUO 1B 25 Apr 08:58:06 09:00:03 14° 295° (WNW) 09:01:59 145.475/437.950
AAUSAT CUBESAT 2 25 Apr 08:59:00 09:02:41 29° 96° (E) 09:06:20 437.432
ZACube-1 25 Apr 08:59:48 09:02:16 15° 91° (E) 09:04:44 437.345
M-CUBED/EXP-1 PRIME 25 Apr 09:00:39 09:03:03 14° 266° (W) 09:05:28 437.505
SO-50 25 Apr 09:05:38 09:09:23 24° 317° (NW) 09:13:07 436.795
AO-73 25 Apr 09:07:31 09:10:14 17° 92° (E) 09:12:58 145.935
SEEDS 25 Apr 09:20:51 09:25:07 77° 286° (WNW) 09:29:22 437.485
Oscar 11 25 Apr 09:24:51 09:28:14 22° 93° (E) 09:31:37 .
Tancredo 1 25 Apr 09:29:29 09:32:26 42° 141° (SE) 09:35:24 437.200
UWE-3 25 Apr 09:35:16 09:39:25 64° 101° (E) 09:43:38 435.000/436.395/437.385
ISS 25 Apr 09:37:48 09:40:52 41° 141° (SE) 09:43:58 437.550
TIGRISAT 25 Apr 09:42:12 09:45:42 24° 67° (ENE) 09:49:10 435.000
CUBEBUG 2 25 Apr 09:44:53 09:48:58 59° 286° (WNW) 09:53:05 437.445
DELFI C3 25 Apr 09:59:43 10:01:56 14° 91° (E) 10:04:08 145.870
PRISM 25 Apr 10:00:32 10:04:38 67° 74° (ENE) 10:08:47 437.425
UNISAT 6 25 Apr 10:02:11 10:06:18 41° 71° (ENE) 10:10:22 437.425
RS-15 25 Apr 10:04:12 10:16:04 55° 316° (NW) 10:28:14 29.354- 29.394
FO-29 25 Apr 10:16:49 10:22:58 52° 71° (ENE) 10:28:27 435.910
O/OREOS (USA 219) 25 Apr 10:19:31 10:22:25 17° 99° (E) 10:25:19 437.305
AAUSAT CUBESAT 2 25 Apr 10:34:34 10:38:01 25° 292° (WNW) 10:41:28 437.432
ZACube-1 25 Apr 10:34:45 10:38:48 48° 287° (WNW) 10:42:54 437.345
AO-73 25 Apr 10:42:42 10:46:41 44° 288° (WNW) 10:50:44 145.935
QB50P2 25 Apr 10:45:12 10:45:33 10° 60° (ENE) 10:45:53 145.880/145.840
HO-68 25 Apr 10:46:41 10:52:12 25° 304° (WNW) 10:57:42 435.675
PCSat 25 Apr 10:52:16 10:56:07 19° 41° (NE) 10:59:56 145.827
Oscar 11 25 Apr 11:00:29 11:04:26 35° 290° (WNW) 11:08:24 .
OBJECT BX 25 Apr 11:04:27 11:08:06 61° 101° (ESE) 11:11:43 145.990 - 145.960
Tancredo 1 25 Apr 11:05:37 11:08:25 30° 338° (NNW) 11:11:14 437.200
NANOSAT C BR1 25 Apr 11:06:38 11:08:59 15° 63° (ENE) 11:11:21 145.865
UWE-3 25 Apr 11:13:36 11:15:23 13° 297° (WNW) 11:17:10 435.000/436.395/437.385
ISS 25 Apr 11:14:24 11:17:24 33° 338° (NNW) 11:20:24 437.550
TIGRISAT 25 Apr 11:18:17 11:22:15 33° 263° (W) 11:26:10 435.000
EO-79 25 Apr 11:31:51 11:35:29 29° 68° (ENE) 11:39:08 145.935-145.965
DELFI C3 25 Apr 11:33:06 11:36:58 46° 287° (WNW) 11:40:47 145.870
DUCHIFAT 1 25 Apr 11:35:59 11:39:29 26° 68° (ENE) 11:43:00 145.980
PRISM 25 Apr 11:39:17 11:40:21 11° 271° (W) 11:41:26 437.425
UNISAT 6 25 Apr 11:40:03 11:43:11 19° 267° (W) 11:46:16 437.425
AIST 2D 25 Apr 11:41:50 11:45:16 64° 75° (ENE) 11:48:43 435.315
O/OREOS (USA 219) 25 Apr 11:56:54 12:01:22 52° 297° (WNW) 12:05:54 437.305
FO-29 25 Apr 12:03:08 12:08:14 25° 265° (W) 12:12:56 435.910
ESTCUBE 1 25 Apr 12:08:47 12:12:40 27° 95° (E) 12:16:30 437.505/2401.250
POLYITAN 1 25 Apr 12:09:56 12:14:08 76° 76° (ENE) 12:18:21 437.675
LO-87 25 Apr 12:13:45 12:17:18 55° 101° (E) 12:20:46 145.935 - 145.965
QB50P2 25 Apr 12:16:26 12:20:40 85° 259° (W) 12:24:55 145.880/145.840
RS-15 25 Apr 12:22:06 12:32:15 28° 347° (NNW) 12:42:23 29.354- 29.394
VELOX 1 25 Apr 12:30:31 12:32:25 12° 90° (E) 12:34:19 145.980
PCSat 25 Apr 12:34:45 12:40:13 85° 242° (WSW) 12:45:39 145.827
NANOSAT C BR1 25 Apr 12:40:08 12:44:16 54° 260° (W) 12:48:23 145.865
OBJECT BX 25 Apr 12:40:40 12:41:16 10° 297° (WNW) 12:41:51 145.990 - 145.960
Tancredo 1 25 Apr 12:42:52 12:45:02 17° 359° (N) 12:47:12 437.200
BUGSAT 1 25 Apr 12:43:43 12:47:42 46° 72° (ENE) 12:51:40 437.445
Gurwin Techsat 1B 25 Apr 12:49:43 12:52:34 15° 58° (ENE) 12:55:26 435.225
ISS 25 Apr 12:52:11 12:54:33 18° 358° (N) 12:56:55 437.550
Oscar 19 25 Apr 12:58:52 13:03:11 28° 65° (ENE) 13:07:32 437.125/150
50 SAT 25 Apr 12:59:53 13:01:17 12° 91° (E) 13:02:40 437.505
AO-85 25 Apr 13:05:00 13:08:40 27° 115° (ESE) 13:12:10 145.980
EO-79 25 Apr 13:07:42 13:11:13 25° 265° (W) 13:14:45 145.935-145.965
DUCHIFAT 1 25 Apr 13:11:28 13:15:05 27° 264° (W) 13:18:41 145.980
AO-7 25 Apr 13:22:36 13:26:09 13° 41° (NE) 13:29:43 .
DX 1 25 Apr 13:26:29 13:29:36 19° 93° (E) 13:32:42 434.975-435.025
SPROUT 25 Apr 13:43:02 13:47:17 73° 101° (ESE) 13:51:30 437.525
ESTCUBE 1 25 Apr 13:45:26 13:49:26 31° 292° (WNW) 13:53:26 437.505/2401.250
LO-87 25 Apr 13:49:28 13:50:15 11° 297° (WNW) 13:51:00 145.935 - 145.965
YUBILEINY 25 Apr 14:03:48 14:06:42 12° 52° (NE) 14:09:37 435.215
VELOX 1 25 Apr 14:04:53 14:09:18 64° 287° (WNW) 14:13:39 145.980
SO-50 25 Apr 14:15:41 14:17:27 12° 32° (NNE) 14:19:12 436.795
Tancredo 1 25 Apr 14:18:58 14:21:40 26° 19° (NNE) 14:24:23 437.200
BUGSAT 1 25 Apr 14:20:51 14:23:18 15° 268° (W) 14:25:44 437.445
PCSat 25 Apr 14:20:54 14:22:44 12° 258° (WSW) 14:24:35 145.827
ITAMSAT 1 25 Apr 14:22:45 14:25:56 17° 59° (ENE) 14:29:06 435.822/435.867
Gurwin Techsat 1B 25 Apr 14:26:29 14:31:48 84° 255° (WSW) 14:37:10 435.225
ISS 25 Apr 14:28:55 14:31:47 27° 18° (NNE) 14:34:38 437.550
BEESAT 2 25 Apr 14:29:06 14:31:09 14° 110° (ESE) 14:33:12 435.950
50 SAT 25 Apr 14:31:08 14:34:26 41° 288° (WNW) 14:37:43 437.505
UKube-1 25 Apr 14:31:44 14:36:04 66° 102° (ESE) 14:40:20 .
BEESAT 3 25 Apr 14:31:44 14:35:23 38° 117° (ESE) 14:39:07 437.485
Oscar 19 25 Apr 14:37:31 14:42:19 39° 262° (W) 14:47:10 437.125/150
RS-15 25 Apr 14:39:13 14:49:56 32° 23° (NNE) 15:00:21 29.354- 29.394
AO-85 25 Apr 14:45:11 14:48:59 31° 312° (NW) 14:52:36 145.980
DX 1 25 Apr 15:01:51 15:05:57 41° 290° (WNW) 15:10:02 434.975-435.025
AO-7 25 Apr 15:09:08 15:17:04 53° 63° (ENE) 15:25:02 .
SPROUT 25 Apr 15:21:06 15:22:36 12° 299° (WNW) 15:24:05 437.525
ITUPSAT 1 25 Apr 15:30:04 15:33:52 23° 94° (E) 15:37:38 437.325
SO-50 25 Apr 15:54:24 15:58:51 59° 52° (NE) 16:03:18 436.795
Tancredo 1 25 Apr 15:54:42 15:57:46 57° 217° (SW) 16:00:48 437.200
YUBILEINY 25 Apr 15:57:10 16:05:48 57° 76° (ENE) 16:14:24 435.215
ITAMSAT 1 25 Apr 15:59:37 16:04:48 72° 257° (WSW) 16:10:00 435.822/435.867
BEESAT 2 25 Apr 16:04:31 16:08:25 57° 307° (NW) 16:12:25 435.950
ISS 25 Apr 16:05:14 16:08:27 60° 216° (SW) 16:11:38 437.550
UKube-1 25 Apr 16:09:30 16:11:32 13° 299° (WNW) 16:13:35 .
BEESAT 3 25 Apr 16:09:52 16:13:06 23° 315° (NW) 16:16:22 437.485
Gurwin Techsat 1B 25 Apr 16:11:43 16:12:32 10° 273° (W) 16:13:21 435.225
